Flag for Angola Weather past 2 weeks in Huambo, Angola

Now
68 °F

Passing clouds.


Feels Like: 68 °F
Forecast: 62 / 85 °F
Wind: 5 mph from Southeast

Location: Luanda Airport

Current Time: Sep 2, 2015 at 5:57:41 AM

Latest Report: Sep 2, 2015 at 5:00 AM


Visibility: 5 mi

Pressure: 29.98 "Hg (24.53 "Hg at 1720m altitude)

Humidity: 88%

Dew point: 64 °F

Location of HuamboLocation

Historic Weather in Huambo — Graph

°F

Huambo temperature yesterday

Maximum temperature yesterday: 77 °F (at 1:00 PM)
Minimum temperature yesterday: 68 °F (at 12:00 AM)
Average temperature yesterday: 71 °F

Past Weeks' High & Low Weather Summary

 TemperatureHumidityPressure
High81 °F (Aug 31, 12:00 PM)100% (Aug 23, 6:00 AM)30.24 "Hg (Aug 23, 6:00 AM)
Low61 °F (Aug 23, 6:00 AM)27% (Aug 21, 7:00 PM)29.83 "Hg (Aug 23, 4:00 PM)
Average70 °F82%29.95 "Hg
* Reported Aug 18 4:00 AM — Sep 2 4:00 AM, Huambo, Weather by CustomWeather, © 2015

Note: Actual official high and low records may vary slightly from our data, if they occured in-between our weather recording intervals... More about our weather records

Advertising

Huambo weather history for previous 24 hours

 ConditionsComfort  
Time TempWeatherWind HumidityBarometerVisibility
4:00 AM
Wed, Sep 2
68 °FPassing clouds.2 mph88%29.98 "HgN/A
3:00 AM68 °FPassing clouds.3 mph88%29.98 "HgN/A
2:00 AM68 °FPassing clouds.5 mph88%29.98 "HgN/A
1:00 AM66 °FPassing clouds.3 mph94%29.98 "HgN/A
12:00 AM68 °FPassing clouds.5 mph88%30.01 "HgN/A
11:00 PM
Tue, Sep 1
68 °FPassing clouds.6 mph88%30.01 "HgN/A
10:00 PM68 °FPassing clouds.6 mph88%30.01 "HgN/A
8:00 PM70 °FClear.7 mph83%29.95 "Hg10 mi
7:00 PM70 °FClear.7 mph78%29.92 "Hg10 mi
6:00 PM70 °FSunny.7 mph83%29.92 "Hg10 mi
5:00 PM72 °FSunny.12 mph78%29.89 "Hg10 mi
4:00 PM73 °FSunny.9 mph74%29.89 "Hg10 mi
3:00 PM73 °FSunny.12 mph78%29.92 "Hg10 mi
2:00 PM73 °FSunny.12 mph74%29.92 "Hg10 mi
1:00 PM77 °FSunny.9 mph65%29.95 "Hg10 mi
12:00 PM75 °FSunny.7 mph74%29.98 "Hg10 mi
11:00 AM75 °FScattered clouds.7 mph74%30.01 "HgN/A
10:00 AM72 °FBroken clouds.5 mph83%30.01 "Hg4 mi
9:00 AM70 °FBroken clouds.5 mph88%30.01 "Hg5 mi
8:00 AM70 °FBroken clouds.5 mph88%30.01 "Hg5 mi
7:00 AM70 °FPartly sunny.2 mph83%29.98 "HgN/A
6:00 AM70 °FPassing clouds.3 mph83%29.98 "HgN/A
Weather by CustomWeather, © 2015

See weather overviewHow to use our weather pages